Location: Bacea
(45.9500°N, 22.6667°E)
Time: 12:25:44
(UTC+00:00)

Cosmos 1300 - Pass Details

Date: 05 June 2022
Orbit: 506 x 508 km, 82.5° (Epoch: 04 July)

Event Time Altitude Azimuth Distance (km) Brightness Sun altitude
Rises 23:19:48 0° 329° (NNW) 2,620 7.0 -20.4°
Reaches altitude 10° 23:23:14 10° 296° (WNW) 1,727 5.5 -20.3°
Maximum altitude 23:24:31 12° 276° (W) 1,632 5.1 -20.2°
Enters shadow 23:24:37 11° 274° (W) 1,632 5.1 -20.2°
